Regional Weather Roundup
Issued by NWS Green Bay, WI

Home | Current Version | Previous Version | Graphics & Text | Print | Product List | Glossary Off
Versions: 1 2 3 4 5 6 7 8 9 10 11 12 13 14 15 16 17 18 19 20 21 22 23 24 25 26 27 28 29 30 31 32 33 34 35 36 37 38 39 40 41 42 43 44 45 46 47 48 49 50

000
ASUS43 KGRB 251801
RWRGRB

NORTH-CENTRAL AND NORTHEAST WISCONSIN REGIONAL WEATHER ROUNDUP
NATIONAL WEATHER SERVICE GREEN BAY WI
100 PM CDT TUE JUL 25 2017

WIZ005-009-010>012-018-019-251900-
NORTH CENTRAL WISCONSIN

CITY           SKY/WX    TMP DP  RH WIND       PRES   REMARKS
IRONWOOD       SUNNY     74  58  57 S15G21    30.06F
MANITOWISH WTR NOT AVBL
ARBOR VITAE    NOT AVBL
EAGLE RIVER    NOT AVBL
LAND O LAKES   CLOUDY    72  47  41 S10G23    30.15S
RHINELANDER    CLOUDY    72  48  42 S10       30.15F
PHILLIPS       CLOUDY    69  58  69 SE15      30.09F
ANTIGO         MOSUNNY   67  55  65 S13       30.18F
TOMAHAWK       NOT AVBL
MERRILL        CLOUDY    67  55  63 S8        30.17F
$$

WIZ013-073-251900-
NORTHEAST WISCONSIN

CITY           SKY/WX    TMP DP  RH WIND       PRES   REMARKS
IRON MOUNTAIN  PTSUNNY   73  49  42 S15       30.15F
MARINETTE      CLOUDY    75  60  59 SW14G21   30.18F
$$

WIZ017-030-035>037-045-251900-
CENTRAL WISCONSIN

CITY           SKY/WX    TMP DP  RH WIND       PRES   REMARKS
MEDFORD        NOT AVBL
WAUSAU         CLOUDY    68  58  70 S15       30.14F
MOSINEE        PTSUNNY   68  59  73 S13       30.18F
MARSHFIELD     LGT RAIN  65  59  81 SE9       30.12F
WISC RAPIDS    PTSUNNY   68  58  70 S7        30.17F
STEVENS POINT  NOT AVBL
WAUPACA        NOT AVBL
SHAWANO        CLOUDY    74  59  60 S5        30.18F
CLINTONVILLE   PTSUNNY  N/A N/A N/A S9        30.18F
WAUTOMA        PTSUNNY   73  61  65 S9        30.18F
$$

WIZ038-039-048-051-251900-
FOX VALLEY

CITY           SKY/WX    TMP DP  RH WIND       PRES   REMARKS
NWS GREEN BAY  MOSUNNY   75  63  66 S10G21    30.19S
APPLETON       PTSUNNY   73  57  56 S12G21    30.19R
OSHKOSH        MOSUNNY   74  59  59 SW10      30.19S
FOND DU LAC    MOSUNNY   76  58  53 S10       30.19F
$$

WIZ022-050-052-251900-
EAST CENTRAL WISCONSIN

CITY           SKY/WX    TMP DP  RH WIND       PRES   REMARKS
EPHRAIM        FAIR      73  60  63 S7        30.18S
WASHINGTON ISL FAIR      71  62  73 S7        30.18F
STURGEON BAY     N/A     74  62  66 S10       30.19F
MANITOWOC      NOT AVBL
SHEBOYGAN      MOSUNNY   75  67  76 S12       30.20S
$$

LMZ563-521-522-541>543-251900-
LAKESHORE

STATION/POSITION TIME  TEMP    WIND        PRES    VSBY  WAVE
                       AIR SEA DIR/SP/G                  HT/PER
                 (UTC) (F)     (DEG/KT/KT) (MB)    (MI)  (FT/S)
SHEBOYGAN LKSHOR 1700   67     160/ 10/ 11 1022.6R
KEWAUNEE LKSHORE 1730   69     160/ 12/ 14 1021.7S
NORTHPORT PIER   1740   70     150/ 11/ 14 1021.7F
N MID LAKE BUOY  1650   66 67  180/ 10/ 12 1022.8R         1
S GREEN BAY BUOY 1730   71 72  220/ 12/ 14 1021.6F
CHAMBERS ISLAND  1740   73     190/  4/ 15 1021.3F
MENOMINEE LKSHOR 1730   72     190/ 12/ 16 1021.6F
$$




USA.gov is the U.S. government's official web portal to all federal, state and local government web resources and services.